This is the latest recevied weather packets stored in our database for station/object KB4MOX. If no packets are shown the sender has not sent any weather packets the latest 10 day(s).
| Time | Temp. | Humidity | Pressure | Rain* | Wind** | Luminosity | Snow |
|---|---|---|---|---|---|---|---|
| 1777572548 | 24.44° C | 60% | 1010.1 hPa | 0 mm | - | 693 W/m² | - |
| 1777572243 | 25° C | 60% | 1010.3 hPa | 0 mm | - | 542 W/m² | - |
| 1777571938 | 25° C | 62% | 1010.2 hPa | 0 mm | - | 832 W/m² | - |
| 1777571634 | 25° C | 62% | 1010.5 hPa | 0 mm | - | 878 W/m² | - |
| 1777571332 | 24.44° C | 63% | 1010.6 hPa | 0 mm | - | 807 W/m² | - |
| 1777571027 | 24.44° C | 61% | 1010.6 hPa | 0 mm | - | 931 W/m² | - |
| 1777570724 | 24.44° C | 59% | 1010.7 hPa | 0 mm | - | 842 W/m² | - |
| 1777570420 | 24.44° C | 60% | 1010.6 hPa | 0 mm | - | 831 W/m² | - |
| 1777570116 | 24.44° C | 61% | 1010.5 hPa | 0 mm | - | 933 W/m² | - |
| 1777569812 | 23.89° C | 61% | 1010.6 hPa | 0 mm | - | 803 W/m² | - |
| 1777569508 | 24.44° C | 62% | 1010.7 hPa | 0 mm | - | 784 W/m² | - |
| 1777569205 | 24.44° C | 62% | 1010.8 hPa | 0 mm | - | 835 W/m² | - |
| 1777568901 | 23.89° C | 64% | 1011 hPa | 0 mm | - | 902 W/m² | - |
| 1777568598 | 23.89° C | 65% | 1011.1 hPa | 0 mm | - | 612 W/m² | - |
| 1777568295 | 23.33° C | 66% | 1011 hPa | 0 mm | - | 875 W/m² | - |
| 1777567991 | 23.33° C | 66% | 1010.8 hPa | 0 mm | - | 578 W/m² | - |
| 1777567689 | 23.33° C | 65% | 1011.3 hPa | 0 mm | - | 724 W/m² | - |
| 1777567385 | 23.33° C | 67% | 1011.1 hPa | 0 mm | - | 838 W/m² | - |
| 1777567084 | 22.78° C | 70% | 1010.9 hPa | 0 mm | - | 752 W/m² | - |
| 1777566781 | 22.78° C | 70% | 1011 hPa | 0 mm | - | 308 W/m² | - |
| 1777566478 | 22.22° C | 76% | 1011.2 hPa | 0 mm | - | 751 W/m² | - |
| 1777566176 | 21.67° C | 76% | 1011.1 hPa | 0 mm | - | 209 W/m² | - |
| 1777565871 | 21.67° C | 77% | 1011.1 hPa | 0 mm | - | 455 W/m² | - |
| 1777565568 | 21.67° C | 78% | 1011.1 hPa | 0 mm | - | 437 W/m² | - |
| 1777565264 | 21.67° C | 77% | 1011 hPa | 0 mm | - | 248 W/m² | - |
* Rain latest hour (hover to see other rain measurements)
** Current wind speed in m/s (hover to see current wind gust speed)